Bir, Billing Road

India     32˚03′35″N   76˚44′42″E
temp.,
°C
wind,
m/s
gust,
m/s
humid.,
%
clouds,
%
prec.,
mm/h
press.,
hPa
HPBL,
m
27 november, fri
fri2723:30+6˚ne33360 0.0 103130
02:30+6˚ne33290 0.0 103128
05:30+6˚ne33250 0.0 103129
08:30+10˚ne22240 0.0 103133
11:30+16˚ssw21200 0.0 1028639
14:30+16˚wsw21240 0.0 1025735
17:30+10˚nne32390 0.0 102624
20:30+10˚nne33330 0.0 102926
28 november, sat
sat2823:30+10˚ne33260 0.0 102927
02:30+10˚nne33210 0.0 102726
05:30+10˚nne33190 0.0 102724
08:30+13˚nne12260 0.0 102727
11:30+18˚sw212110 0.0 1024438
14:30+18˚wsw212453 0.0 1021601
17:30+12˚ne123842 0.0 102223
20:30+12˚nne223693 0.0 102423
29 november, sun
sun2923:30+11˚nne223276 0.0 102423
02:30+11˚ne222736 0.0 102323
05:30+11˚nne222568 0.0 102223
08:30+14˚n113197 0.0 102425
11:30+18˚sw212582 0.0 1022469
14:30+17˚wsw213068 0.0 1020589
17:30+11˚ene114467 0.0 102123
20:30+11˚nne123798 0.0 102322
30 november, mon
mon3023:30+11˚nne223791 0.0 102222
02:30+11˚nne223666 0.0 102223
05:30+10˚nne223547 0.0 102123
08:30+14˚nne11367 0.0 102327
11:30+17˚sw21313 0.0 1022470
14:30+17˚wsw213234 0.0 1019624
17:30+11˚nne114666 0.0 102123
20:30+12˚ne1143100 0.0 102323
1 december, tue
tue123:30+11˚nnw114393 0.0 102323
02:30+10˚nne114592 0.0 102222
05:30+10˚nne124346 0.0 102122
08:30+14˚nne114317 0.0 102324
11:30+17˚wsw22329 0.0 1022544
14:30+17˚wsw22290 0.0 1019796
17:30+11˚nne12450 0.0 102123
20:30+11˚ne22470 0.0 102322